Regional Weather Roundup
Issued by NWS Cleveland, OH

Home | Current Version | Previous Version | Text Only | Print | Product List | Glossary On
Versions: 1 2 3 4 5 6 7 8 9 10 11 12 13 14 15 16 17 18 19 20 21 22 23 24 25 26 27 28 29 30 31 32 33 34 35 36 37 38 39 40 41 42 43 44 45 46 47 48 49 50
000
ASUS41 KCLE 302210
RWRCLE
OHIO REGIONAL WEATHER ROUNDUP
NATIONAL WEATHER SERVICE WILMINGTON, OH
600 PM EDT SUN AUG 30 2015

NOTE: "FAIR" INDICATES FEW OR NO CLOUDS BELOW 12,000 FEET WITH NO
SIGNIFICANT WEATHER AND/OR OBSTRUCTIONS TO VISIBILITY.

OHZ001>008-015>018-024>027-034-035-043-044-302300-
   NORTHWEST OHIO

CITY           SKY/WX    TMP DP  RH WIND       PRES   REMARKS
DEFIANCE       MOSUNNY   85  66  53 W6        30.02F
FINDLAY        LGT RAIN  75  69  81 E7        30.02F
TOLEDO EXPRESS SUNNY     83  65  54 SW9       30.01F
TOLEDO EXEC    SUNNY     85  63  47 W10       30.01F
LIMA           MOSUNNY   79  67  66 S9        30.04F
$$

OHZ009>014-019>023-028>033-038-089-302300-
   NORTHEAST OHIO

CITY           SKY/WX    TMP DP  RH WIND       PRES   REMARKS
CLE-HOPKINS    MOSUNNY   82  65  56 W9        30.05S
CLE-LAKEFRONT  MOSUNNY   80  71  74 NE6       30.02S
CUY CO. ARPT   PTSUNNY   82  70  65 W6        30.05S
LORAIN-ELYRIA  MOSUNNY   82  66  58 SW8       30.03F
ASHTABULA      SUNNY     79  69  71 W3        30.06S
AKRON-CANTON   MOSUNNY   83  65  54 W8        30.06F
WOOSTER        MOSUNNY   81  67  62 SW6       30.06F
MANSFIELD      PTSUNNY   82  67  60 S9        30.06F
YOUNGSTOWN     PTSUNNY   80  65  59 SW5       30.06F
$$

OHZ042-051>053-060>062-070>072-077>081-302300-
  SOUTHWEST OHIO

CITY           SKY/WX    TMP DP  RH WIND       PRES   REMARKS
CINC-COVINGTON PTSUNNY   77  63  61 S8        30.06S
CINC-LUNKEN    PTSUNNY   82  69  64 SW13      30.04S
HAMILTON       PTSUNNY   81  68  64 S3        30.04S
DAYTON         MOSUNNY   83  66  56 S8        30.05F
WRIGHT-PAT AFB PTSUNNY   83  68  59 S18       30.03S
DAYTON GENERAL CLOUDY    76  66  71 S14       30.06R THUNDER
WILMINGTON     MOSUNNY   81  66  60 SW9       30.05F
$$

OHZ036-037-039>041-045>050-054>059-063>069-073>076-082>088-302300-
  CENTRAL AND SOUTHEAST OHIO

CITY           SKY/WX    TMP DP  RH WIND       PRES   REMARKS
COLUMBUS       PTSUNNY   83  67  58 SE7       30.03F
OSU AIRPORT    MOSUNNY   85  67  54 SW8       30.03F
BOLTON FIELD   MOSUNNY   84  70  61 SW8       30.04F
RICKENBACK AFB MOSUNNY   85  67  54 S7        30.03F
NEWARK         MOSUNNY   83  67  58 SW7       30.04F
MARION         PTSUNNY   80  67  64 S7        30.04F
LANCASTER      SUNNY     83  66  56 SW8       30.05F
ZANESVILLE     PTSUNNY   85  64  49 SW8       30.06S
NEW PHILLY     MOSUNNY   83  66  56 VRB6      30.06F
$$



USA.gov is the U.S. government's official web portal to all federal, state and local government web resources and services.